Location: Buffign�court
(47.8126°N, 6.0176°E)
Time: 01:20:49
(UTC+00:00)

Cosmos 2219 Rocket - Visible Passes

Search period start: 23 October 2021 00:00
Search period end: 02 November 2021 00:00
Orbit: 828 x 846 km, 71.0° (Epoch: 22 October)

Date Brightness Start Highest point End Pass type
(mag) Time Alt. Az. Time Alt. Az. Time Alt. Az.
23 Oct 4.0 03:35:36 10° NNW 03:40:30 29° NE 03:45:24 10° ESE visible
23 Oct 2.3 05:19:16 10° NW 05:24:48 57° WSW 05:30:20 10° S visible
24 Oct 4.1 03:19:13 10° N 03:24:02 28° NE 03:28:51 10° ESE visible
24 Oct 2.2 05:02:49 10° NNW 05:08:24 62° WSW 05:13:59 10° S visible
24 Oct 3.8 18:14:06 10° SSE 18:15:45 17° SE 18:15:45 17° SE visible
24 Oct 4.4 19:56:32 10° SW 19:57:35 16° SW 19:57:35 16° SW visible
25 Oct 4.1 03:02:51 10° N 03:07:34 26° NE 03:12:17 10° ESE visible
25 Oct 2.2 04:46:24 10° NNW 04:52:01 66° WSW 04:57:37 10° SSE visible
25 Oct 3.3 17:57:54 10° SSE 18:01:22 22° ESE 18:01:22 22° ESE visible
25 Oct 3.4 19:40:04 10° SW 19:43:12 34° SW 19:43:12 34° SW visible
26 Oct 4.2 02:47:06 12° N 02:51:06 25° NE 02:55:43 10° E visible
26 Oct 2.1 04:29:57 10° NNW 04:35:37 71° WSW 04:41:15 10° SSE visible
26 Oct 3.3 17:41:42 10° SSE 17:45:47 21° E 17:46:51 20° E visible
26 Oct 2.5 19:23:37 10° SW 19:28:40 63° W 19:28:40 63° W visible
27 Oct 4.2 02:32:09 18° N 02:34:38 24° NE 02:39:08 10° E visible
27 Oct 2.1 04:13:57 12° NNW 04:19:12 76° WSW 04:24:52 10° SSE visible
27 Oct 3.4 17:25:32 10° SE 17:29:25 20° E 17:32:08 14° ENE visible
27 Oct 2.3 19:07:11 10° SW 19:12:46 72° WNW 19:13:56 54° N visible
27 Oct 4.8 20:54:09 10° W 20:55:44 14° WNW 20:55:44 14° WNW visible
28 Oct 4.3 02:17:26 22° NNE 02:18:09 23° NE 02:22:33 10° E visible
28 Oct 2.1 03:59:15 24° NNW 04:02:48 81° WSW 04:08:28 10° SSE visible
28 Oct 3.8 05:43:16 10° WNW 05:45:49 13° W 05:48:21 10° WSW visible
28 Oct 3.5 17:09:22 10° SE 17:13:04 18° E 17:16:46 10° ENE visible
28 Oct 2.2 18:50:45 10° SSW 18:56:20 77° WNW 18:58:59 33° NNE visible
28 Oct 4.6 20:37:30 10° W 20:40:46 18° NW 20:40:46 18° NW visible
29 Oct 4.5 02:02:56 20° ENE 02:02:56 20° ENE 02:05:57 10° E visible
29 Oct 2.0 03:44:45 49° NNW 03:46:23 86° WSW 03:52:04 10° SSE visible
29 Oct 3.7 05:26:35 10° WNW 05:29:28 14° W 05:32:22 10° SW visible
29 Oct 3.6 16:53:16 10° SE 16:56:43 17° E 17:00:11 10° ENE visible
29 Oct 2.2 18:34:20 10° SSW 18:39:55 82° WNW 18:43:48 21° NNE visible
29 Oct 4.5 20:20:53 10° W 20:24:48 19° NW 20:25:34 18° NNW visible
30 Oct 4.9 01:48:33 13° E 01:48:33 13° E 01:49:21 10° E visible
30 Oct 2.1 03:30:23 78° SE 03:30:23 78° SE 03:35:40 10° SSE visible
30 Oct 3.6 05:12:13 15° W 05:13:07 16° W 05:16:20 10° SW visible
30 Oct 2.1 18:17:54 10° SSW 18:23:30 87° WNW 18:28:24 14° NNE visible
30 Oct 4.4 20:04:15 10° W 20:08:18 20° NW 20:10:10 17° NNW visible
31 Oct 3.3 03:16:06 35° SSE 03:16:06 35° SSE 03:19:15 10° SSE visible
31 Oct 3.7 04:57:56 16° WSW 04:57:56 16° WSW 05:00:15 10° SW visible
31 Oct 2.1 18:01:29 10° SSW 18:07:05 88° ESE 18:12:46 10° NNE visible
31 Oct 4.4 19:47:39 10° W 19:51:49 21° NW 19:54:36 15° N visible
01 Nov 4.3 03:01:47 16° SSE 03:01:47 16° SSE 03:02:50 10° SSE visible
01 Nov 4.1 04:43:37 12° SW 04:43:37 12° SW 04:44:08 10° SW visible
01 Nov 2.1 17:45:05 10° SSW 17:50:41 82° ESE 17:56:21 10° NNE visible
01 Nov 4.3 19:31:03 10° W 19:35:21 22° NW 19:38:55 13° N visible
